Location: *
(44.3683°N, 6.6958°E)
Time: 08:35:06
(UTC+00:00)

Nadezhda 3 Rocket - Pass Details

Date: 14 October 2019
Orbit: 957 x 999 km, 82.9° (Epoch: 18 November)

Event Time Altitude Azimuth Distance (km) Brightness Sun altitude
Rises 17:40:41 0° 185° (S) 3,657 7.1 -9.6°
Reaches altitude 10° 17:43:09 10° 185° (S) 2,720 6.4 -10.0°
Maximum altitude 17:49:25 88° 98° (E) 993 4.0 -11.1°
Drops below altitude 10° 17:55:47 10° 9° (N) 2,766 6.3 -12.3°
Sets 17:58:20 0° 9° (N) 3,724 7.0 -12.7°
